DW3823 Weather Reports


time (UTC)temp
F
wind
direction
speed
knots
gust
knots
rain 1hr
in
rain 24hr
in
rain mn
in
humidity
%
barometer
mb
20260509080043 54 225 0.9 2.6 0.00 0.00 0.00 77 1010.4
20260509075542 54 174 0.9 2.6 0.00 0.00 0.00 77 1010.3
20260509075043 54 163 0.0 3.5 0.00 0.00 0.00 77 1010.4
20260509074541 54 188 0.9 3.5 0.00 0.00 0.00 78 1010.6
20260509074041 54 184 0.0 2.6 0.00 0.00 0.00 78 1010.5
20260509073540 53 185 0.0 3.5 0.00 0.00 0.00 78 1010.4
20260509073139 53 176 0.9 3.5 0.00 0.00 0.00 79 1010.6
20260509072538 52 161 0.0 1.7 0.00 0.00 0.00 79 1010.6
20260509072038 52 161 0.0 0.9 0.00 0.00 0.00 78 1010.9
20260509071548 53 161 0.0 2.6 0.00 0.00 0.00 78 1011.0
20260509071038 53 161 0.0 3.5 0.00 0.00 0.00 78 1010.9
20260509070541 53 153 0.0 1.7 0.00 0.00 0.00 77 1010.9
20260509070043 53 153 0.0 1.7 0.00 0.00 0.00 77 1010.9
20260509065537 53 157 0.0 1.7 0.00 0.00 0.00 77 1010.7
20260509065036 53 157 0.0 1.7 0.00 0.00 0.00 77 1010.8
20260509064536 53 157 0.0 1.7 0.00 0.00 0.00 77 1010.8
20260509064035 53 157 0.0 0.9 0.00 0.00 0.00 77 1011.1
20260509063536 53 157 0.0 1.7 0.00 0.00 0.00 77 1011.2
20260509063056 53 157 0.0 1.7 0.00 0.00 0.00 77 1011.1
20260509062534 52 157 0.0 0.9 0.00 0.00 0.00 77 1011.2
20260509062033 52 157 0.0 0.9 0.00 0.00 0.00 77 1011.2
20260509061557 52 157 0.0 2.6 0.00 0.00 0.00 76 1011.1
20260509061033 52 164 0.0 0.9 0.00 0.00 0.00 77 1011.2
20260509060535 52 165 0.0 0.9 0.00 0.00 0.00 76 1011.3
20260509060049 53 165 0.0 1.7 0.00 0.00 0.00 75 1011.3
20260509055531 53 165 0.0 1.7 0.00 0.00 0.00 76 1011.5
20260509055029 53 164 0.0 0.9 0.00 0.00 0.00 75 1011.7
20260509054528 53 164 0.0 0.9 0.00 0.00 0.00 74 1011.8
20260509054026 54 164 0.0 1.7 0.00 0.00 0.00 72 1011.9
20260509053525 55 164 0.0 4.3 0.00 0.00 0.00 70 1011.8
20260509053025 55 161 0.0 4.3 0.00 0.00 0.00 70 1011.9
20260509052523 56 144 0.0 4.3 0.00 0.00 0.00 70 1011.8
20260509052023 56 180 1.7 4.3 0.00 0.00 0.00 70 1011.7
20260509051523 56 193 0.0 2.6 0.00 0.00 0.00 69 1011.7
20260509051023 56 193 0.9 2.6 0.00 0.00 0.00 69 1011.7
20260509050522 56 181 0.0 1.7 0.00 0.00 0.00 69 1011.8
20260509050021 56 181 0.0 1.7 0.00 0.00 0.00 68 1011.8
20260509045520 56 181 0.0 3.5 0.00 0.00 0.00 68 1011.8
20260509045020 57 180 0.0 3.5 0.00 0.00 0.00 67 1011.7
20260509044523 57 190 0.0 4.3 0.00 0.00 0.00 67 1011.6
20260509044019 57 206 0.9 4.3 0.00 0.00 0.00 66 1011.7
20260509043517 57 173 0.9 3.5 0.00 0.00 0.00 66 1011.9
20260509043017 57 205 0.9 4.3 0.00 0.00 0.00 66 1011.9
20260509042519 57 205 0.9 2.6 0.00 0.00 0.00 66 1011.9
20260509042019 57 171 0.9 2.6 0.00 0.00 0.00 65 1012.1
20260509041517 57 175 0.0 3.5 0.00 0.00 0.00 64 1012.2
20260509041017 58 172 0.9 3.5 0.00 0.00 0.00 63 1012.3
20260509040518 58 184 0.9 3.5 0.00 0.00 0.00 62 1012.2
20260509040016 58 220 0.9 4.3 0.00 0.00 0.00 62 1012.3
20260509035516 58 178 1.7 4.3 0.00 0.00 0.00 62 1012.2
20260509035016 58 181 0.0 4.3 0.00 0.00 0.00 62 1012.3
20260509034515 58 266 1.7 4.3 0.00 0.00 0.00 62 1012.3
20260509034015 58 178 0.0 2.6 0.00 0.00 0.00 61 1012.3
20260509033519 58 188 0.0 3.5 0.00 0.00 0.00 61 1012.3
20260509033017 59 196 0.9 3.5 0.00 0.00 0.00 60 1012.3
20260509032516 58 186 0.0 1.7 0.00 0.00 0.00 61 1012.4
20260509032019 59 186 0.0 2.6 0.00 0.00 0.00 61 1012.5
20260509031514 59 186 0.0 2.6 0.00 0.00 0.00 61 1012.5
20260509031014 59 190 0.9 2.6 0.00 0.00 0.00 61 1012.5
20260509030515 58 176 0.0 3.5 0.00 0.00 0.00 61 1012.5
20260509030014 58 165 0.9 3.5 0.00 0.00 0.00 62 1012.4
20260509025513 59 161 0.9 2.6 0.00 0.00 0.00 62 1012.5
20260509025017 59 169 0.0 2.6 0.00 0.00 0.00 63 1012.4
20260509024516 58 167 0.9 1.7 0.00 0.00 0.00 63 1012.7
20260509024014 57 167 0.0 1.7 0.00 0.00 0.00 66 1012.6
20260509023513 58 167 0.0 1.7 0.00 0.00 0.00 66 1012.6
20260509023013 57 169 0.0 1.7 0.00 0.00 0.00 67 1012.6
20260509022512 57 169 0.0 0.0 0.00 0.00 0.00 67 1012.5
20260509022014 58 169 0.0 0.9 0.00 0.00 0.00 67 1012.5
20260509021513 58 169 0.0 0.9 0.00 0.00 0.00 66 1012.6
20260509021013 58 169 0.0 0.9 0.00 0.00 0.00 66 1012.5
20260509020512 58 169 0.0 1.7 0.00 0.00 0.00 64 1012.4
20260509020023 60 169 0.0 1.7 0.00 0.00 0.00 62 1012.4
20260509015513 59 169 0.0 1.7 0.00 0.00 0.00 62 1012.4
20260509015013 59 169 0.0 0.9 0.00 0.00 0.00 63 1012.4
20260509014532 57 169 0.0 0.9 0.00 0.00 0.00 66 1012.3
20260509014011 58 169 0.0 0.9 0.00 0.00 0.00 65 1012.3
20260509013511 58 169 0.0 0.9 0.00 0.00 0.00 63 1012.2
20260509013011 59 169 0.0 1.7 0.00 0.00 0.00 64 1012.1
20260509012511 59 169 0.0 2.6 0.00 0.00 0.00 63 1012.1
20260509012011 58 181 0.0 0.0 0.00 0.00 0.00 64 1012.2
20260509011511 58 181 0.0 0.0 0.00 0.00 0.00 63 1012.0
20260509011010 59 181 0.0 0.0 0.00 0.00 0.00 62 1012.1
20260509010516 58 181 0.0 0.0 0.00 0.00 0.00 63 1012.1
20260509010009 59 181 0.0 0.0 0.00 0.00 0.00 63 1012.1
20260509005510 59 181 0.0 0.0 0.00 0.00 0.00 62 1012.1
20260509005012 59 181 0.0 0.0 0.00 0.00 0.00 59 1012.0
20260509004515 60 181 0.0 0.0 0.00 0.00 0.00 57 1012.0
20260509004008 60 181 0.0 0.0 0.00 0.00 0.00 56 1012.1
20260509003512 61 181 0.0 0.0 0.00 0.00 0.00 54 1012.0
20260509003020 61 181 0.0 0.0 0.00 0.00 0.00 56 1011.9
20260509002507 62 181 0.0 0.0 0.00 0.00 0.00 54 1011.9
20260509002007 63 181 0.0 0.0 0.00 0.00 0.00 52 1011.9
20260509001507 64 181 0.0 1.7 0.00 0.00 0.00 47 1012.1
20260509001007 66 181 0.0 2.6 0.00 0.00 0.00 44 1012.4
20260509000506 66 181 0.0 2.6 0.00 0.00 0.00 43 1012.4
20260509000006 66 176 0.0 2.6 0.00 0.00 0.00 41 1012.5
20260508235508 67 218 0.0 1.7 0.00 0.00 0.00 40 1012.5
20260508235006 67 218 0.0 1.7 0.00 0.00 0.00 40 1012.4
20260508234505 67 218 0.0 3.5 0.00 0.00 0.00 39 1012.4
20260508234004 68 157 0.9 3.5 0.00 0.00 0.00 39 1012.3
20260508233507 68 236 0.0 3.5 0.00 0.00 0.00 38 1012.4
20260508233005 69 225 0.0 6.1 0.00 0.00 0.00 36 1012.4
20260508232505 69 145 0.9 2.6 0.00 0.00 0.00 37 1012.4
20260508232004 69 213 0.9 4.3 0.00 0.00 0.00 36 1012.4
20260508231504 70 183 0.9 4.3 0.00 0.00 0.00 38 1012.4
20260508231004 70 172 0.9 4.3 0.00 0.00 0.00 35 1012.3
20260508230504 70 290 1.7 4.3 0.00 0.00 0.00 37 1012.3
20260508230004 70 240 1.7 4.3 0.00 0.00 0.00 36 1012.4
20260508225503 71 257 0.9 3.5 0.00 0.00 0.00 35 1012.4
20260508225101 71 214 0.9 3.5 0.00 0.00 0.00 35 1012.4
20260508224602 71 284 0.0 3.5 0.00 0.00 0.00 38 1012.4
20260508224100 71 261 1.7 3.5 0.00 0.00 0.00 35 1012.6
20260508223602 71 250 0.0 5.2 0.00 0.00 0.00 37 1012.5
20260508223059 71 173 1.7 6.1 0.00 0.00 0.00 33 1012.6
20260508222558 71 148 1.7 6.1 0.00 0.00 0.00 32 1012.6
20260508222057 71 217 2.6 6.1 0.00 0.00 0.00 35 1012.7
20260508221600 71 219 0.9 7.0 0.00 0.00 0.00 35 1012.8
20260508221057 71 244 2.6 8.7 0.00 0.00 0.00 32 1012.9
20260508220556 72 166 1.7 8.7 0.00 0.00 0.00 32 1012.9
20260508220056 72 338 1.7 4.3 0.00 0.00 0.00 32 1012.9
20260508215557 72 132 1.7 5.2 0.00 0.00 0.00 33 1013.0
20260508215056 72 78 1.7 5.2 0.00 0.00 0.00 34 1013.1
20260508214558 72 294 0.9 5.2 0.00 0.00 0.00 34 1012.9
20260508214056 72 279 1.7 5.2 0.00 0.00 0.00 32 1012.8
20260508213555 72 290 2.6 5.2 0.00 0.00 0.00 34 1012.9
20260508213055 72 161 0.9 4.3 0.00 0.00 0.00 33 1012.7
20260508212555 73 186 0.9 9.6 0.00 0.00 0.00 37 1012.8
20260508212055 72 225 2.6 9.6 0.00 0.00 0.00 34 1012.8
20260508211554 72 211 1.7 4.3 0.00 0.00 0.00 37 1012.8
20260508211055 72 240 1.7 4.3 0.00 0.00 0.00 34 1012.9
20260508210556 72 290 0.9 4.3 0.00 0.00 0.00 38 1012.8
20260508210053 72 182 1.7 6.1 0.00 0.00 0.00 32 1013.0
20260508205559 72 206 2.6 7.0 0.00 0.00 0.00 34 1013.1
20260508205052 72 261 2.6 7.0 0.00 0.00 0.00 33 1012.9
20260508204552 72 195 3.5 7.0 0.00 0.00 0.00 33 1012.9
20260508204051 72 236 0.9 5.2 0.00 0.00 0.00 35 1013.0
20260508203550 72 227 0.9 4.3 0.00 0.00 0.00 36 1013.1
20260508203058 72 238 0.9 5.2 0.00 0.00 0.00 33 1013.1
20260508202549 72 215 1.7 5.2 0.00 0.00 0.00 34 1013.2
20260508202049 72 71 1.7 6.1 0.00 0.00 0.00 29 1013.3
20260508201558 72 226 1.7 7.0 0.00 0.00 0.00 35 1013.4
20260508201047 72 247 2.6 7.0 0.00 0.00 0.00 28 1013.5
20260508200547 72 241 2.6 5.2 0.00 0.00 0.00 32 1013.5
20260508200046 72 235 0.9 7.0 0.00 0.00 0.00 32 1013.6
20260508195545 72 187 1.7 7.0 0.00 0.00 0.00 36 1013.5
20260508195047 72 179 0.9 4.3 0.00 0.00 0.00 31 1013.6
20260508194544 72 182 2.6 4.3 0.00 0.00 0.00 32 1013.7
20260508194043 72 63 0.9 5.2 0.00 0.00 0.00 36 1013.7
20260508193542 71 229 0.9 5.2 0.00 0.00 0.00 34 1013.7
20260508193043 71 178 0.9 4.3 0.00 0.00 0.00 33 1013.9
20260508192542 71 172 1.7 5.2 0.00 0.00 0.00 34 1013.9
20260508192041 71 271 0.9 5.2 0.00 0.00 0.00 38 1013.9
20260508191541 71 171 1.7 4.3 0.00 0.00 0.00 31 1014.1
20260508191039 71 355 1.7 6.1 0.00 0.00 0.00 36 1014.2
20260508190538 71 264 1.7 6.1 0.00 0.00 0.00 32 1014.4
20260508190038 71 153 2.6 6.1 0.00 0.00 0.00 36 1014.7
20260508185538 71 289 0.9 6.1 0.00 0.00 0.00 36 1014.9
20260508185034 70 286 1.7 7.0 0.00 0.00 0.00 33 1014.9
20260508184534 70 283 1.7 7.0 0.00 0.00 0.00 35 1015.0
20260508184033 70 236 1.7 6.1 0.00 0.00 0.00 35 1014.9
20260508183532 70 280 2.6 6.1 0.00 0.00 0.00 37 1015.1
20260508183035 70 177 1.7 7.8 0.00 0.00 0.00 34 1015.1
20260508182531 70 178 0.9 6.1 0.00 0.00 0.00 37 1015.2
20260508182034 70 113 1.7 6.1 0.00 0.00 0.00 38 1015.3
20260508181535 70 234 0.9 4.3 0.00 0.00 0.00 37 1015.4
20260508181028 70 163 2.6 6.1 0.00 0.00 0.00 36 1015.7
20260508180528 69 323 0.9 6.1 0.00 0.00 0.00 35 1015.7
20260508180027 69 168 3.5 6.1 0.00 0.00 0.00 38 1015.8
20260508175529 68 315 0.9 6.1 0.00 0.00 0.00 34 1015.8
20260508175025 69 181 1.7 6.1 0.00 0.00 0.00 37 1015.8
20260508174529 68 173 1.7 6.1 0.00 0.00 0.00 40 1015.8
20260508174023 68 161 1.7 6.1 0.00 0.00 0.00 38 1015.6
20260508173523 68 236 1.7 5.2 0.00 0.00 0.00 39 1015.8
20260508173023 68 146 2.6 5.2 0.00 0.00 0.00 38 1016.0
20260508172520 67 40 1.7 5.2 0.00 0.00 0.00 38 1016.0
20260508172020 68 173 2.6 5.2 0.00 0.00 0.00 40 1016.2
20260508171525 68 153 1.7 6.1 0.00 0.00 0.00 43 1016.2
20260508171018 68 238 2.6 6.1 0.00 0.00 0.00 37 1016.2
20260508170520 67 277 1.7 6.1 0.00 0.00 0.00 40 1016.3
20260508170017 67 181 2.6 6.1 0.00 0.00 0.00 35 1016.4
20260508165515 67 176 2.6 6.1 0.00 0.00 0.00 38 1016.6
20260508165017 67 224 2.6 5.2 0.00 0.00 0.00 42 1016.8
20260508164513 67 267 0.9 7.0 0.00 0.00 0.00 40 1016.8
20260508164012 67 282 0.9 7.0 0.00 0.00 0.00 42 1016.9
20260508163513 66 248 2.6 7.8 0.00 0.00 0.00 43 1017.0
20260508163014 66 136 3.5 7.8 0.00 0.00 0.00 40 1017.2
20260508162509 66 281 1.7 5.2 0.00 0.00 0.00 46 1017.3
20260508162010 66 167 2.6 6.1 0.00 0.00 0.00 43 1017.3
20260508161507 66 202 3.5 6.1 0.00 0.00 0.00 42 1017.5
20260508161006 65 273 0.9 5.2 0.00 0.00 0.00 42 1017.6
20260508160504 65 183 0.9 5.2 0.00 0.00 0.00 43 1017.6
20260508160004 64 289 0.9 6.1 0.00 0.00 0.00 45 1017.6
20260508155502 64 162 0.9 6.1 0.00 0.00 0.00 45 1017.6
20260508155002 64 69 1.7 5.2 0.00 0.00 0.00 41 1017.7
20260508154605 64 206 1.7 3.5 0.00 0.00 0.00 49 1017.8
20260508154058 64 229 0.9 6.1 0.00 0.00 0.00 43 1017.8
20260508153557 63 215 1.7 6.1 0.00 0.00 0.00 43 1017.9
20260508153057 63 153 0.9 4.3 0.00 0.00 0.00 43 1018.1
20260508152554 63 176 0.0 5.2 0.00 0.00 0.00 42 1018.4
20260508152053 64 229 2.6 5.2 0.00 0.00 0.00 44 1018.4
20260508151554 63 86 1.7 5.2 0.00 0.00 0.00 46 1018.4
20260508151051 63 212 1.7 5.2 0.00 0.00 0.00 46 1018.4
20260508150550 63 198 0.9 6.1 0.00 0.00 0.00 48 1018.6
20260508150048 62 254 3.5 6.1 0.00 0.00 0.00 45 1018.6
20260508145547 62 254 1.7 6.1 0.00 0.00 0.00 46 1018.5
20260508145046 62 260 2.6 6.1 0.00 0.00 0.00 46 1018.4
20260508144546 62 182 1.7 6.1 0.00 0.00 0.00 46 1018.5
20260508144042 61 242 2.6 6.1 0.00 0.00 0.00 49 1018.5
20260508143541 61 107 0.0 5.2 0.00 0.00 0.00 47 1018.4
20260508143038 60 107 0.9 5.2 0.00 0.00 0.00 47 1018.6
20260508142537 60 174 0.9 5.2 0.00 0.00 0.00 51 1018.7
20260508142036 60 199 1.7 7.8 0.00 0.00 0.00 49 1018.6
20260508141604 60 170 1.7 7.8 0.00 0.00 0.00 56 1018.6
20260508141034 60 248 1.7 4.3 0.00 0.00 0.00 55 1018.6
20260508140532 59 202 1.7 4.3 0.00 0.00 0.00 54 1018.6
20260508140032 59 184 0.9 2.6 0.00 0.00 0.00 58 1018.6
20260508135529 59 173 0.0 3.5 0.00 0.00 0.00 58 1018.6
20260508135028 58 173 0.9 5.2 0.00 0.00 0.00 61 1018.6
20260508134533 57 274 0.9 3.5 0.00 0.00 0.00 60 1018.7
20260508134024 57 157 0.0 3.5 0.00 0.00 0.00 61 1018.7
20260508133526 56 196 0.9 2.6 0.00 0.00 0.00 58 1018.6
20260508133022 56 208 0.0 2.6 0.00 0.00 0.00 64 1018.8
20260508132521 55 208 0.0 3.5 0.00 0.00 0.00 64 1018.7
20260508132022 54 213 0.9 3.5 0.00 0.00 0.00 64 1018.7
20260508131517 54 219 0.0 3.5 0.00 0.00 0.00 66 1018.7
20260508131016 53 239 0.9 3.5 0.00 0.00 0.00 67 1018.6
20260508130514 53 190 0.9 3.5 0.00 0.00 0.00 67 1018.6
20260508130013 52 174 0.9 3.5 0.00 0.00 0.00 66 1018.6
20260508125511 52 179 0.0 2.6 0.00 0.00 0.00 69 1018.5
20260508125014 51 179 0.9 2.6 0.00 0.00 0.00 72 1018.3
20260508124508 50 176 0.0 2.6 0.00 0.00 0.00 75 1018.3
20260508124007 49 176 0.9 2.6 0.00 0.00 0.00 75 1018.4
20260508123505 49 176 0.0 1.7 0.00 0.00 0.00 80 1018.4
20260508123004 48 176 0.9 2.6 0.00 0.00 0.00 86 1018.3
20260508122503 46 176 0.0 2.6 0.00 0.00 0.00 91 1018.3
20260508122001 45 175 0.0 1.7 0.00 0.00 0.00 94 1018.3
20260508121602 44 175 0.0 1.7 0.00 0.00 0.00 94 1018.2
20260508121058 43 5 0.0 0.0 0.00 0.00 0.00 95 1018.3
20260508120557 42 5 0.0 0.0 0.00 0.00 0.00 95 1018.1
20260508120058 41 5 0.0 0.0 0.00 0.00 0.00 95 1018.1
20260508115557 41 5 0.0 0.0 0.00 0.00 0.00 95 1018.1
20260508115056 40 5 0.0 0.0 0.00 0.00 0.00 95 1018.0
20260508114555 40 5 0.0 0.0 0.00 0.00 0.00 95 1017.9
20260508114054 39 5 0.0 0.0 0.00 0.00 0.00 95 1017.9
20260508113554 39 5 0.0 0.0 0.00 0.00 0.00 95 1017.7
20260508113105 38 5 0.0 0.0 0.00 0.00 0.00 95 1017.7
20260508112552 38 5 0.0 0.0 0.00 0.00 0.00 94 1017.6
20260508112051 38 5 0.0 0.0 0.00 0.00 0.00 94 1017.6
20260508111557 38 5 0.0 0.0 0.00 0.00 0.00 94 1017.5
20260508111054 38 5 0.0 0.0 0.00 0.00 0.00 94 1017.5
20260508110550 38 5 0.0 0.0 0.00 0.00 0.00 94 1017.4
20260508110054 38 5 0.0 0.0 0.00 0.00 0.00 94 1017.4
20260508105548 38 5 0.0 0.0 0.00 0.00 0.00 94 1017.3
20260508105047 38 5 0.0 0.0 0.00 0.00 0.00 94 1017.3
20260508104546 38 5 0.0 0.0 0.00 0.00 0.00 94 1017.3
20260508104045 39 5 0.0 0.0 0.00 0.00 0.00 94 1017.3
20260508103546 39 5 0.0 0.0 0.00 0.00 0.00 94 1017.3
20260508103045 39 5 0.0 0.0 0.00 0.00 0.00 95 1017.2
20260508102544 39 5 0.0 0.0 0.00 0.00 0.00 94 1017.1
20260508102044 39 5 0.0 0.0 0.00 0.00 0.00 94 1017.1
20260508101543 39 5 0.0 0.9 0.00 0.00 0.00 94 1017.0
20260508101043 39 5 0.0 0.9 0.00 0.00 0.00 94 1016.9
20260508100542 39 5 0.0 0.9 0.00 0.00 0.00 94 1016.9
20260508100042 39 5 0.0 0.0 0.00 0.00 0.00 94 1016.9
20260508095542 38 5 0.0 0.0 0.00 0.00 0.00 94 1016.9
20260508095042 38 5 0.0 0.0 0.00 0.00 0.00 94 1016.7
20260508094541 38 5 0.0 0.0 0.00 0.00 0.00 94 1016.7
20260508094040 39 5 0.0 0.0 0.00 0.00 0.00 94 1016.8
20260508093540 39 5 0.0 0.0 0.00 0.00 0.00 94 1016.6
20260508093046 39 5 0.0 0.0 0.00 0.00 0.00 94 1016.7
20260508092538 39 5 0.0 0.0 0.00 0.00 0.00 94 1016.6
20260508092038 39 5 0.0 0.0 0.00 0.00 0.00 94 1016.5
20260508091548 39 5 0.0 0.0 0.00 0.00 0.00 94 1016.5
20260508091040 39 5 0.0 0.0 0.00 0.00 0.00 94 1016.6
20260508090536 39 5 0.0 0.0 0.00 0.00 0.00 94 1016.6
20260508090040 39 5 0.0 0.0 0.00 0.00 0.00 94 1016.6
20260508085537 39 5 0.0 0.0 0.00 0.00 0.00 93 1016.5
20260508085035 40 5 0.0 0.0 0.00 0.00 0.00 93 1016.4
20260508084534 39 5 0.0 0.0 0.00 0.00 0.00 93 1016.4
20260508084034 40 5 0.0 0.0 0.00 0.00 0.00 93 1016.4
20260508083532 40 5 0.0 0.0 0.00 0.00 0.00 93 1016.6
20260508083032 40 5 0.0 0.0 0.00 0.00 0.00 93 1016.6
20260508082531 40 5 0.0 0.0 0.00 0.00 0.00 93 1016.5
20260508082031 40 5 0.0 0.0 0.00 0.00 0.00 93 1016.6
20260508081532 40 5 0.0 0.0 0.00 0.00 0.00 93 1016.6
20260508081031 41 5 0.0 0.0 0.00 0.00 0.00 93 1016.6
20260508080533 40 5 0.0 0.0 0.00 0.00 0.00 93 1016.6